<?xml version="1.0" encoding="UTF-8" standalone="no" ?>
<gpx xmlns="http://www.topografix.com/GPX/1/1" xmlns:xsi="http://www.w3.org/2001/XMLSchema-instance" xsi:schemaLocation="http://www.topografix.com/GPX/1/1 http://www.topografix.com/GPX/1/1/gpx.xsd" version="1.1" creator="VisuGPX - https://www.visugpx.com">
  <metadata>
    <name>bitume</name>
  </metadata>
  <wpt lat="47.2596" lon="0.10728">
    <ele>29.9</ele>
    <name><![CDATA[001]]></name>
  </wpt>
  <wpt lat="47.25414" lon="0.1054">
    <ele>26.5</ele>
    <name><![CDATA[002]]></name>
  </wpt>
  <wpt lat="47.25199" lon="0.10326">
    <ele>26.3</ele>
    <name><![CDATA[003]]></name>
  </wpt>
  <wpt lat="47.24589" lon="0.10318">
    <ele>28.2</ele>
    <name><![CDATA[004]]></name>
  </wpt>
  <wpt lat="47.24553" lon="0.1056">
    <ele>29.1</ele>
    <name><![CDATA[005]]></name>
  </wpt>
  <wpt lat="47.24299" lon="0.11058">
    <ele>29.7</ele>
    <name><![CDATA[006]]></name>
  </wpt>
  <wpt lat="47.23984" lon="0.11423">
    <ele>30.7</ele>
    <name><![CDATA[007]]></name>
  </wpt>
  <wpt lat="47.23897" lon="0.11935">
    <ele>30.8</ele>
    <name><![CDATA[008]]></name>
  </wpt>
  <wpt lat="47.23801" lon="0.1195">
    <ele>31.8</ele>
    <name><![CDATA[009]]></name>
  </wpt>
  <wpt lat="47.23695" lon="0.11949">
    <ele>32.5</ele>
    <name><![CDATA[010]]></name>
  </wpt>
  <wpt lat="47.23556" lon="0.11994">
    <ele>31.3</ele>
    <name><![CDATA[011]]></name>
  </wpt>
  <wpt lat="47.23506" lon="0.12036">
    <ele>33.8</ele>
    <name><![CDATA[012]]></name>
  </wpt>
  <wpt lat="47.23477" lon="0.12027">
    <ele>34.8</ele>
    <name><![CDATA[013]]></name>
  </wpt>
  <wpt lat="47.23415" lon="0.1204">
    <ele>36.1</ele>
    <name><![CDATA[014]]></name>
  </wpt>
  <wpt lat="47.23034" lon="0.11283">
    <ele>32.8</ele>
    <name><![CDATA[015]]></name>
  </wpt>
  <wpt lat="47.22618" lon="0.10428">
    <ele>32.6</ele>
    <name><![CDATA[016]]></name>
  </wpt>
  <wpt lat="47.22162" lon="0.09354">
    <ele>33.1</ele>
    <name><![CDATA[017]]></name>
  </wpt>
  <wpt lat="47.22213" lon="0.09217">
    <ele>31.9</ele>
    <name><![CDATA[018]]></name>
  </wpt>
  <wpt lat="47.22076" lon="0.08818">
    <ele>32.9</ele>
    <name><![CDATA[019]]></name>
  </wpt>
  <wpt lat="47.21715" lon="0.07607">
    <ele>32.7</ele>
    <name><![CDATA[020]]></name>
  </wpt>
  <wpt lat="47.21766" lon="0.07118">
    <ele>30.9</ele>
    <name><![CDATA[021]]></name>
  </wpt>
  <wpt lat="47.22032" lon="0.06131">
    <ele>31.1</ele>
    <name><![CDATA[022]]></name>
  </wpt>
  <wpt lat="47.22118" lon="0.05935">
    <ele>29.3</ele>
    <name><![CDATA[023]]></name>
  </wpt>
  <wpt lat="47.2272" lon="0.05103">
    <ele>28.8</ele>
    <name><![CDATA[024]]></name>
  </wpt>
  <wpt lat="47.22734" lon="0.05007">
    <ele>28.7</ele>
    <name><![CDATA[025]]></name>
  </wpt>
  <wpt lat="47.22217" lon="0.04652">
    <ele>32.9</ele>
    <name><![CDATA[026]]></name>
  </wpt>
  <wpt lat="47.22261" lon="0.04676">
    <ele>31.1</ele>
    <name><![CDATA[027]]></name>
  </wpt>
  <wpt lat="47.22565" lon="0.04002">
    <ele>29.4</ele>
    <name><![CDATA[028]]></name>
  </wpt>
  <wpt lat="47.22425" lon="0.03802">
    <ele>30.3</ele>
    <name><![CDATA[029]]></name>
  </wpt>
  <wpt lat="47.22324" lon="0.03625">
    <ele>32</ele>
    <name><![CDATA[030]]></name>
  </wpt>
  <wpt lat="47.22259" lon="0.0349">
    <ele>34.7</ele>
    <name><![CDATA[031]]></name>
  </wpt>
  <trk>
    <name><![CDATA[2021-07-29 13-32-15]]></name>
    <extensions>
      <line xmlns="http://www.topografix.com/GPX/gpx_style/0/2">
        <color>0000FF</color>
        <width>4</width>
      </line>
    </extensions>
    <trkseg>
      <trkpt lat="47.25961" lon="0.10726">
        <ele>26</ele>
        <time>2021-07-29T07:47:37Z</time>
      </trkpt>
      <trkpt lat="47.25961" lon="0.10726">
        <ele>26</ele>
        <time>2021-07-29T07:47:38Z</time>
      </trkpt>
      <trkpt lat="47.25961" lon="0.10726">
        <ele>26</ele>
        <time>2021-07-29T07:47:40Z</time>
      </trkpt>
      <trkpt lat="47.25961" lon="0.10727">
        <ele>26</ele>
        <time>2021-07-29T07:47:50Z</time>
      </trkpt>
      <trkpt lat="47.2596" lon="0.10728">
        <ele>26</ele>
        <time>2021-07-29T07:48:03Z</time>
      </trkpt>
      <trkpt lat="47.25955" lon="0.1074">
        <ele>26</ele>
        <time>2021-07-29T07:49:23Z</time>
      </trkpt>
      <trkpt lat="47.25944" lon="0.10742">
        <ele>26</ele>
        <time>2021-07-29T07:49:39Z</time>
      </trkpt>
      <trkpt lat="47.25932" lon="0.10745">
        <ele>26</ele>
        <time>2021-07-29T07:49:49Z</time>
      </trkpt>
      <trkpt lat="47.25922" lon="0.10748">
        <ele>26</ele>
        <time>2021-07-29T07:49:58Z</time>
      </trkpt>
      <trkpt lat="47.25911" lon="0.10751">
        <ele>26</ele>
        <time>2021-07-29T07:50:07Z</time>
      </trkpt>
      <trkpt lat="47.25902" lon="0.10753">
        <ele>26</ele>
        <time>2021-07-29T07:50:17Z</time>
      </trkpt>
      <trkpt lat="47.25892" lon="0.10757">
        <ele>26</ele>
        <time>2021-07-29T07:50:26Z</time>
      </trkpt>
      <trkpt lat="47.25881" lon="0.1076">
        <ele>26</ele>
        <time>2021-07-29T07:50:35Z</time>
      </trkpt>
      <trkpt lat="47.2587" lon="0.10764">
        <ele>26</ele>
        <time>2021-07-29T07:50:44Z</time>
      </trkpt>
      <trkpt lat="47.2586" lon="0.10769">
        <ele>26</ele>
        <time>2021-07-29T07:50:54Z</time>
      </trkpt>
      <trkpt lat="47.25849" lon="0.10776">
        <ele>26</ele>
        <time>2021-07-29T07:51:03Z</time>
      </trkpt>
      <trkpt lat="47.25838" lon="0.10782">
        <ele>26</ele>
        <time>2021-07-29T07:51:12Z</time>
      </trkpt>
      <trkpt lat="47.25828" lon="0.10788">
        <ele>26</ele>
        <time>2021-07-29T07:51:21Z</time>
      </trkpt>
      <trkpt lat="47.25818" lon="0.10793">
        <ele>26</ele>
        <time>2021-07-29T07:51:32Z</time>
      </trkpt>
      <trkpt lat="47.25808" lon="0.10799">
        <ele>26</ele>
        <time>2021-07-29T07:51:48Z</time>
      </trkpt>
      <trkpt lat="47.25797" lon="0.10804">
        <ele>26</ele>
        <time>2021-07-29T07:52:06Z</time>
      </trkpt>
      <trkpt lat="47.25786" lon="0.1081">
        <ele>26</ele>
        <time>2021-07-29T07:52:19Z</time>
      </trkpt>
      <trkpt lat="47.25776" lon="0.10816">
        <ele>26</ele>
        <time>2021-07-29T07:52:29Z</time>
      </trkpt>
      <trkpt lat="47.25766" lon="0.10822">
        <ele>26</ele>
        <time>2021-07-29T07:52:41Z</time>
      </trkpt>
      <trkpt lat="47.25755" lon="0.10829">
        <ele>26</ele>
        <time>2021-07-29T07:53:35Z</time>
      </trkpt>
      <trkpt lat="47.25745" lon="0.10835">
        <ele>26</ele>
        <time>2021-07-29T07:53:44Z</time>
      </trkpt>
      <trkpt lat="47.25735" lon="0.1084">
        <ele>26</ele>
        <time>2021-07-29T07:53:53Z</time>
      </trkpt>
      <trkpt lat="47.25725" lon="0.10843">
        <ele>26</ele>
        <time>2021-07-29T07:54:01Z</time>
      </trkpt>
      <trkpt lat="47.25712" lon="0.10844">
        <ele>26</ele>
        <time>2021-07-29T07:54:10Z</time>
      </trkpt>
      <trkpt lat="47.25701" lon="0.10845">
        <ele>26</ele>
        <time>2021-07-29T07:54:27Z</time>
      </trkpt>
      <trkpt lat="47.2569" lon="0.10849">
        <ele>26</ele>
        <time>2021-07-29T07:54:37Z</time>
      </trkpt>
      <trkpt lat="47.2568" lon="0.10852">
        <ele>25</ele>
        <time>2021-07-29T07:54:46Z</time>
      </trkpt>
      <trkpt lat="47.25668" lon="0.10855">
        <ele>25</ele>
        <time>2021-07-29T07:54:55Z</time>
      </trkpt>
      <trkpt lat="47.25656" lon="0.10856">
        <ele>26</ele>
        <time>2021-07-29T07:55:04Z</time>
      </trkpt>
      <trkpt lat="47.25646" lon="0.10855">
        <ele>26</ele>
        <time>2021-07-29T07:55:11Z</time>
      </trkpt>
      <trkpt lat="47.25634" lon="0.10854">
        <ele>26</ele>
        <time>2021-07-29T07:55:20Z</time>
      </trkpt>
      <trkpt lat="47.25623" lon="0.10852">
        <ele>26</ele>
        <time>2021-07-29T07:55:28Z</time>
      </trkpt>
      <trkpt lat="47.25613" lon="0.10852">
        <ele>26</ele>
        <time>2021-07-29T07:55:37Z</time>
      </trkpt>
      <trkpt lat="47.25602" lon="0.1085">
        <ele>26</ele>
        <time>2021-07-29T07:55:44Z</time>
      </trkpt>
      <trkpt lat="47.2559" lon="0.10849">
        <ele>26</ele>
        <time>2021-07-29T07:55:53Z</time>
      </trkpt>
      <trkpt lat="47.25578" lon="0.10845">
        <ele>26</ele>
        <time>2021-07-29T07:56:01Z</time>
      </trkpt>
      <trkpt lat="47.25568" lon="0.1084">
        <ele>26</ele>
        <time>2021-07-29T07:56:10Z</time>
      </trkpt>
      <trkpt lat="47.25559" lon="0.10834">
        <ele>26</ele>
        <time>2021-07-29T07:56:42Z</time>
      </trkpt>
      <trkpt lat="47.25549" lon="0.1083">
        <ele>26</ele>
        <time>2021-07-29T07:56:50Z</time>
      </trkpt>
      <trkpt lat="47.2554" lon="0.10828">
        <ele>26</ele>
        <time>2021-07-29T07:56:57Z</time>
      </trkpt>
      <trkpt lat="47.25531" lon="0.10825">
        <ele>26</ele>
        <time>2021-07-29T07:57:04Z</time>
      </trkpt>
      <trkpt lat="47.25522" lon="0.10822">
        <ele>26</ele>
        <time>2021-07-29T07:57:11Z</time>
      </trkpt>
      <trkpt lat="47.25513" lon="0.10819">
        <ele>26</ele>
        <time>2021-07-29T07:57:18Z</time>
      </trkpt>
      <trkpt lat="47.25505" lon="0.10812">
        <ele>26</ele>
        <time>2021-07-29T07:57:26Z</time>
      </trkpt>
      <trkpt lat="47.25496" lon="0.10804">
        <ele>26</ele>
        <time>2021-07-29T07:57:38Z</time>
      </trkpt>
      <trkpt lat="47.25488" lon="0.10795">
        <ele>26</ele>
        <time>2021-07-29T07:57:45Z</time>
      </trkpt>
      <trkpt lat="47.25479" lon="0.10784">
        <ele>26</ele>
        <time>2021-07-29T07:57:53Z</time>
      </trkpt>
      <trkpt lat="47.25472" lon="0.10773">
        <ele>25</ele>
        <time>2021-07-29T07:58:03Z</time>
      </trkpt>
      <trkpt lat="47.25464" lon="0.10764">
        <ele>26</ele>
        <time>2021-07-29T07:58:11Z</time>
      </trkpt>
      <trkpt lat="47.25455" lon="0.10756">
        <ele>26</ele>
        <time>2021-07-29T07:58:20Z</time>
      </trkpt>
      <trkpt lat="47.25445" lon="0.10747">
        <ele>26</ele>
        <time>2021-07-29T07:58:30Z</time>
      </trkpt>
      <trkpt lat="47.25437" lon="0.10735">
        <ele>26</ele>
        <time>2021-07-29T07:58:38Z</time>
      </trkpt>
      <trkpt lat="47.25435" lon="0.10721">
        <ele>26</ele>
        <time>2021-07-29T07:58:46Z</time>
      </trkpt>
      <trkpt lat="47.25433" lon="0.10704">
        <ele>25</ele>
        <time>2021-07-29T07:58:54Z</time>
      </trkpt>
      <trkpt lat="47.25433" lon="0.10689">
        <ele>25</ele>
        <time>2021-07-29T07:59:02Z</time>
      </trkpt>
      <trkpt lat="47.25432" lon="0.10675">
        <ele>25</ele>
        <time>2021-07-29T07:59:09Z</time>
      </trkpt>
      <trkpt lat="47.25429" lon="0.10658">
        <ele>25</ele>
        <time>2021-07-29T07:59:17Z</time>
      </trkpt>
      <trkpt lat="47.25428" lon="0.10641">
        <ele>25</ele>
        <time>2021-07-29T07:59:25Z</time>
      </trkpt>
      <trkpt lat="47.25427" lon="0.10625">
        <ele>26</ele>
        <time>2021-07-29T07:59:33Z</time>
      </trkpt>
      <trkpt lat="47.25426" lon="0.1061">
        <ele>25</ele>
        <time>2021-07-29T07:59:41Z</time>
      </trkpt>
      <trkpt lat="47.25424" lon="0.10595">
        <ele>25</ele>
        <time>2021-07-29T07:59:49Z</time>
      </trkpt>
      <trkpt lat="47.25423" lon="0.10581">
        <ele>26</ele>
        <time>2021-07-29T07:59:57Z</time>
      </trkpt>
      <trkpt lat="47.25421" lon="0.10567">
        <ele>25</ele>
        <time>2021-07-29T08:00:05Z</time>
      </trkpt>
      <trkpt lat="47.25418" lon="0.10553">
        <ele>25</ele>
        <time>2021-07-29T08:00:14Z</time>
      </trkpt>
      <trkpt lat="47.25414" lon="0.10541">
        <ele>25</ele>
        <time>2021-07-29T08:00:29Z</time>
      </trkpt>
      <trkpt lat="47.25409" lon="0.10529">
        <ele>25</ele>
        <time>2021-07-29T08:01:17Z</time>
      </trkpt>
      <trkpt lat="47.25403" lon="0.10517">
        <ele>25</ele>
        <time>2021-07-29T08:01:26Z</time>
      </trkpt>
      <trkpt lat="47.25397" lon="0.10505">
        <ele>25</ele>
        <time>2021-07-29T08:01:34Z</time>
      </trkpt>
      <trkpt lat="47.25391" lon="0.10493">
        <ele>25</ele>
        <time>2021-07-29T08:01:41Z</time>
      </trkpt>
      <trkpt lat="47.25386" lon="0.10481">
        <ele>25</ele>
        <time>2021-07-29T08:01:47Z</time>
      </trkpt>
      <trkpt lat="47.2538" lon="0.1047">
        <ele>25</ele>
        <time>2021-07-29T08:01:53Z</time>
      </trkpt>
      <trkpt lat="47.25376" lon="0.10459">
        <ele>25</ele>
        <time>2021-07-29T08:01:59Z</time>
      </trkpt>
      <trkpt lat="47.25372" lon="0.10447">
        <ele>25</ele>
        <time>2021-07-29T08:02:06Z</time>
      </trkpt>
      <trkpt lat="47.25368" lon="0.10434">
        <ele>25</ele>
        <time>2021-07-29T08:02:14Z</time>
      </trkpt>
      <trkpt lat="47.25364" lon="0.1042">
        <ele>25</ele>
        <time>2021-07-29T08:02:22Z</time>
      </trkpt>
      <trkpt lat="47.2536" lon="0.10404">
        <ele>25</ele>
        <time>2021-07-29T08:02:30Z</time>
      </trkpt>
      <trkpt lat="47.25355" lon="0.1039">
        <ele>25</ele>
        <time>2021-07-29T08:02:37Z</time>
      </trkpt>
      <trkpt lat="47.25352" lon="0.10376">
        <ele>25</ele>
        <time>2021-07-29T08:02:44Z</time>
      </trkpt>
      <trkpt lat="47.25348" lon="0.10362">
        <ele>25</ele>
        <time>2021-07-29T08:02:52Z</time>
      </trkpt>
      <trkpt lat="47.25345" lon="0.10347">
        <ele>25</ele>
        <time>2021-07-29T08:02:59Z</time>
      </trkpt>
      <trkpt lat="47.2534" lon="0.10335">
        <ele>25</ele>
        <time>2021-07-29T08:03:05Z</time>
      </trkpt>
      <trkpt lat="47.25332" lon="0.10325">
        <ele>25</ele>
        <time>2021-07-29T08:03:14Z</time>
      </trkpt>
      <trkpt lat="47.25322" lon="0.10323">
        <ele>24</ele>
        <time>2021-07-29T08:03:21Z</time>
      </trkpt>
      <trkpt lat="47.25313" lon="0.10325">
        <ele>24</ele>
        <time>2021-07-29T08:03:28Z</time>
      </trkpt>
      <trkpt lat="47.25304" lon="0.10325">
        <ele>25</ele>
        <time>2021-07-29T08:03:38Z</time>
      </trkpt>
      <trkpt lat="47.25295" lon="0.10327">
        <ele>25</ele>
        <time>2021-07-29T08:03:46Z</time>
      </trkpt>
      <trkpt lat="47.25286" lon="0.10328">
        <ele>25</ele>
        <time>2021-07-29T08:03:53Z</time>
      </trkpt>
      <trkpt lat="47.25275" lon="0.10328">
        <ele>25</ele>
        <time>2021-07-29T08:04:00Z</time>
      </trkpt>
      <trkpt lat="47.25265" lon="0.10328">
        <ele>25</ele>
        <time>2021-07-29T08:04:07Z</time>
      </trkpt>
      <trkpt lat="47.25255" lon="0.10327">
        <ele>25</ele>
        <time>2021-07-29T08:04:15Z</time>
      </trkpt>
      <trkpt lat="47.25246" lon="0.10324">
        <ele>25</ele>
        <time>2021-07-29T08:04:24Z</time>
      </trkpt>
      <trkpt lat="47.25236" lon="0.10324">
        <ele>25</ele>
        <time>2021-07-29T08:04:31Z</time>
      </trkpt>
      <trkpt lat="47.25226" lon="0.10322">
        <ele>25</ele>
        <time>2021-07-29T08:04:38Z</time>
      </trkpt>
      <trkpt lat="47.25217" lon="0.10324">
        <ele>25</ele>
        <time>2021-07-29T08:04:46Z</time>
      </trkpt>
      <trkpt lat="47.25208" lon="0.10325">
        <ele>25</ele>
        <time>2021-07-29T08:04:54Z</time>
      </trkpt>
      <trkpt lat="47.25199" lon="0.10326">
        <ele>25</ele>
        <time>2021-07-29T08:05:02Z</time>
      </trkpt>
      <trkpt lat="47.25191" lon="0.10325">
        <ele>26</ele>
        <time>2021-07-29T08:05:27Z</time>
      </trkpt>
      <trkpt lat="47.25183" lon="0.10325">
        <ele>26</ele>
        <time>2021-07-29T08:05:43Z</time>
      </trkpt>
      <trkpt lat="47.25173" lon="0.10323">
        <ele>26</ele>
        <time>2021-07-29T08:05:54Z</time>
      </trkpt>
      <trkpt lat="47.25168" lon="0.10328">
        <ele>26</ele>
        <time>2021-07-29T08:06:45Z</time>
      </trkpt>
      <trkpt lat="47.25159" lon="0.10334">
        <ele>25</ele>
        <time>2021-07-29T08:06:54Z</time>
      </trkpt>
      <trkpt lat="47.2515" lon="0.1034">
        <ele>25</ele>
        <time>2021-07-29T08:07:09Z</time>
      </trkpt>
      <trkpt lat="47.25141" lon="0.10348">
        <ele>25</ele>
        <time>2021-07-29T08:07:17Z</time>
      </trkpt>
      <trkpt lat="47.25133" lon="0.10356">
        <ele>25</ele>
        <time>2021-07-29T08:07:25Z</time>
      </trkpt>
      <trkpt lat="47.25124" lon="0.10364">
        <ele>26</ele>
        <time>2021-07-29T08:07:32Z</time>
      </trkpt>
      <trkpt lat="47.25114" lon="0.1037">
        <ele>25</ele>
        <time>2021-07-29T08:07:40Z</time>
      </trkpt>
      <trkpt lat="47.25104" lon="0.10376">
        <ele>25</ele>
        <time>2021-07-29T08:07:48Z</time>
      </trkpt>
      <trkpt lat="47.25095" lon="0.10378">
        <ele>25</ele>
        <time>2021-07-29T08:07:55Z</time>
      </trkpt>
      <trkpt lat="47.25086" lon="0.10379">
        <ele>25</ele>
        <time>2021-07-29T08:08:07Z</time>
      </trkpt>
      <trkpt lat="47.25076" lon="0.10378">
        <ele>25</ele>
        <time>2021-07-29T08:08:15Z</time>
      </trkpt>
      <trkpt lat="47.25066" lon="0.10377">
        <ele>25</ele>
        <time>2021-07-29T08:08:22Z</time>
      </trkpt>
      <trkpt lat="47.25056" lon="0.10376">
        <ele>25</ele>
        <time>2021-07-29T08:08:29Z</time>
      </trkpt>
      <trkpt lat="47.25047" lon="0.10375">
        <ele>25</ele>
        <time>2021-07-29T08:08:36Z</time>
      </trkpt>
      <trkpt lat="47.25037" lon="0.10374">
        <ele>25</ele>
        <time>2021-07-29T08:08:43Z</time>
      </trkpt>
      <trkpt lat="47.25028" lon="0.10375">
        <ele>25</ele>
        <time>2021-07-29T08:08:50Z</time>
      </trkpt>
      <trkpt lat="47.25019" lon="0.10376">
        <ele>25</ele>
        <time>2021-07-29T08:08:57Z</time>
      </trkpt>
      <trkpt lat="47.2501" lon="0.10375">
        <ele>25</ele>
        <time>2021-07-29T08:09:04Z</time>
      </trkpt>
      <trkpt lat="47.25001" lon="0.10377">
        <ele>25</ele>
        <time>2021-07-29T08:09:11Z</time>
      </trkpt>
      <trkpt lat="47.24993" lon="0.10379">
        <ele>25</ele>
        <time>2021-07-29T08:09:18Z</time>
      </trkpt>
      <trkpt lat="47.24983" lon="0.10381">
        <ele>25</ele>
        <time>2021-07-29T08:09:26Z</time>
      </trkpt>
      <trkpt lat="47.24974" lon="0.10382">
        <ele>25</ele>
        <time>2021-07-29T08:09:33Z</time>
      </trkpt>
      <trkpt lat="47.24966" lon="0.10383">
        <ele>25</ele>
        <time>2021-07-29T08:09:40Z</time>
      </trkpt>
      <trkpt lat="47.24958" lon="0.10383">
        <ele>26</ele>
        <time>2021-07-29T08:09:47Z</time>
      </trkpt>
      <trkpt lat="47.24949" lon="0.10384">
        <ele>26</ele>
        <time>2021-07-29T08:09:54Z</time>
      </trkpt>
      <trkpt lat="47.24939" lon="0.10385">
        <ele>26</ele>
        <time>2021-07-29T08:10:02Z</time>
      </trkpt>
      <trkpt lat="47.2493" lon="0.10386">
        <ele>25</ele>
        <time>2021-07-29T08:10:10Z</time>
      </trkpt>
      <trkpt lat="47.24921" lon="0.10387">
        <ele>25</ele>
        <time>2021-07-29T08:10:18Z</time>
      </trkpt>
      <trkpt lat="47.24912" lon="0.10388">
        <ele>26</ele>
        <time>2021-07-29T08:10:25Z</time>
      </trkpt>
      <trkpt lat="47.24902" lon="0.1039">
        <ele>26</ele>
        <time>2021-07-29T08:10:33Z</time>
      </trkpt>
      <trkpt lat="47.24894" lon="0.10392">
        <ele>26</ele>
        <time>2021-07-29T08:10:40Z</time>
      </trkpt>
      <trkpt lat="47.24884" lon="0.10394">
        <ele>26</ele>
        <time>2021-07-29T08:10:48Z</time>
      </trkpt>
      <trkpt lat="47.24876" lon="0.10395">
        <ele>26</ele>
        <time>2021-07-29T08:10:56Z</time>
      </trkpt>
      <trkpt lat="47.24867" lon="0.10396">
        <ele>26</ele>
        <time>2021-07-29T08:11:04Z</time>
      </trkpt>
      <trkpt lat="47.24857" lon="0.10393">
        <ele>26</ele>
        <time>2021-07-29T08:11:12Z</time>
      </trkpt>
      <trkpt lat="47.24848" lon="0.10387">
        <ele>26</ele>
        <time>2021-07-29T08:11:21Z</time>
      </trkpt>
      <trkpt lat="47.24842" lon="0.10377">
        <ele>26</ele>
        <time>2021-07-29T08:11:29Z</time>
      </trkpt>
      <trkpt lat="47.24836" lon="0.10366">
        <ele>26</ele>
        <time>2021-07-29T08:11:37Z</time>
      </trkpt>
      <trkpt lat="47.24829" lon="0.10355">
        <ele>26</ele>
        <time>2021-07-29T08:11:45Z</time>
      </trkpt>
      <trkpt lat="47.24821" lon="0.10346">
        <ele>26</ele>
        <time>2021-07-29T08:11:53Z</time>
      </trkpt>
      <trkpt lat="47.24813" lon="0.1034">
        <ele>26</ele>
        <time>2021-07-29T08:12:01Z</time>
      </trkpt>
      <trkpt lat="47.24804" lon="0.10336">
        <ele>26</ele>
        <time>2021-07-29T08:12:10Z</time>
      </trkpt>
      <trkpt lat="47.24795" lon="0.10334">
        <ele>26</ele>
        <time>2021-07-29T08:12:19Z</time>
      </trkpt>
      <trkpt lat="47.24785" lon="0.10334">
        <ele>26</ele>
        <time>2021-07-29T08:12:27Z</time>
      </trkpt>
      <trkpt lat="47.24775" lon="0.10333">
        <ele>26</ele>
        <time>2021-07-29T08:12:35Z</time>
      </trkpt>
      <trkpt lat="47.24765" lon="0.10332">
        <ele>26</ele>
        <time>2021-07-29T08:12:43Z</time>
      </trkpt>
      <trkpt lat="47.24757" lon="0.1033">
        <ele>26</ele>
        <time>2021-07-29T08:12:51Z</time>
      </trkpt>
      <trkpt lat="47.24747" lon="0.10328">
        <ele>26</ele>
        <time>2021-07-29T08:12:59Z</time>
      </trkpt>
      <trkpt lat="47.24738" lon="0.10327">
        <ele>26</ele>
        <time>2021-07-29T08:13:08Z</time>
      </trkpt>
      <trkpt lat="47.24727" lon="0.10327">
        <ele>26</ele>
        <time>2021-07-29T08:13:16Z</time>
      </trkpt>
      <trkpt lat="47.24717" lon="0.10324">
        <ele>26</ele>
        <time>2021-07-29T08:13:24Z</time>
      </trkpt>
      <trkpt lat="47.24706" lon="0.10323">
        <ele>26</ele>
        <time>2021-07-29T08:13:32Z</time>
      </trkpt>
      <trkpt lat="47.24696" lon="0.10324">
        <ele>26</ele>
        <time>2021-07-29T08:13:40Z</time>
      </trkpt>
      <trkpt lat="47.24685" lon="0.10325">
        <ele>26</ele>
        <time>2021-07-29T08:13:49Z</time>
      </trkpt>
      <trkpt lat="47.24675" lon="0.10325">
        <ele>26</ele>
        <time>2021-07-29T08:13:57Z</time>
      </trkpt>
      <trkpt lat="47.24666" lon="0.10324">
        <ele>26</ele>
        <time>2021-07-29T08:14:05Z</time>
      </trkpt>
      <trkpt lat="47.24656" lon="0.10323">
        <ele>26</ele>
        <time>2021-07-29T08:14:14Z</time>
      </trkpt>
      <trkpt lat="47.24646" lon="0.10323">
        <ele>26</ele>
        <time>2021-07-29T08:14:23Z</time>
      </trkpt>
      <trkpt lat="47.24637" lon="0.10322">
        <ele>26</ele>
        <time>2021-07-29T08:14:31Z</time>
      </trkpt>
      <trkpt lat="47.24626" lon="0.1032">
        <ele>26</ele>
        <time>2021-07-29T08:14:40Z</time>
      </trkpt>
      <trkpt lat="47.24616" lon="0.10319">
        <ele>26</ele>
        <time>2021-07-29T08:14:48Z</time>
      </trkpt>
      <trkpt lat="47.24607" lon="0.10318">
        <ele>26</ele>
        <time>2021-07-29T08:14:58Z</time>
      </trkpt>
      <trkpt lat="47.24598" lon="0.10317">
        <ele>27</ele>
        <time>2021-07-29T08:15:06Z</time>
      </trkpt>
      <trkpt lat="47.24589" lon="0.10318">
        <ele>27</ele>
        <time>2021-07-29T08:15:17Z</time>
      </trkpt>
      <trkpt lat="47.24582" lon="0.10325">
        <ele>27</ele>
        <time>2021-07-29T08:16:00Z</time>
      </trkpt>
      <trkpt lat="47.2458" lon="0.10336">
        <ele>27</ele>
        <time>2021-07-29T08:16:15Z</time>
      </trkpt>
      <trkpt lat="47.24579" lon="0.10351">
        <ele>27</ele>
        <time>2021-07-29T08:16:23Z</time>
      </trkpt>
      <trkpt lat="47.24577" lon="0.10362">
        <ele>27</ele>
        <time>2021-07-29T08:16:37Z</time>
      </trkpt>
      <trkpt lat="47.24575" lon="0.10379">
        <ele>26</ele>
        <time>2021-07-29T08:16:48Z</time>
      </trkpt>
      <trkpt lat="47.24572" lon="0.10394">
        <ele>27</ele>
        <time>2021-07-29T08:16:57Z</time>
      </trkpt>
      <trkpt lat="47.24571" lon="0.10408">
        <ele>27</ele>
        <time>2021-07-29T08:17:05Z</time>
      </trkpt>
      <trkpt lat="47.24571" lon="0.10423">
        <ele>27</ele>
        <time>2021-07-29T08:17:13Z</time>
      </trkpt>
      <trkpt lat="47.2457" lon="0.10439">
        <ele>27</ele>
        <time>2021-07-29T08:17:21Z</time>
      </trkpt>
      <trkpt lat="47.24568" lon="0.10455">
        <ele>27</ele>
        <time>2021-07-29T08:17:29Z</time>
      </trkpt>
      <trkpt lat="47.24566" lon="0.10471">
        <ele>27</ele>
        <time>2021-07-29T08:17:38Z</time>
      </trkpt>
      <trkpt lat="47.24563" lon="0.10486">
        <ele>27</ele>
        <time>2021-07-29T08:17:47Z</time>
      </trkpt>
      <trkpt lat="47.24561" lon="0.105">
        <ele>27</ele>
        <time>2021-07-29T08:17:57Z</time>
      </trkpt>
      <trkpt lat="47.24559" lon="0.10516">
        <ele>27</ele>
        <time>2021-07-29T08:18:06Z</time>
      </trkpt>
      <trkpt lat="47.24558" lon="0.10534">
        <ele>27</ele>
        <time>2021-07-29T08:18:15Z</time>
      </trkpt>
      <trkpt lat="47.24555" lon="0.1055">
        <ele>28</ele>
        <time>2021-07-29T08:18:24Z</time>
      </trkpt>
      <trkpt lat="47.24552" lon="0.10565">
        <ele>27</ele>
        <time>2021-07-29T08:19:48Z</time>
      </trkpt>
      <trkpt lat="47.24553" lon="0.10577">
        <ele>27</ele>
        <time>2021-07-29T08:21:16Z</time>
      </trkpt>
      <trkpt lat="47.24556" lon="0.10592">
        <ele>27</ele>
        <time>2021-07-29T08:21:25Z</time>
      </trkpt>
      <trkpt lat="47.24555" lon="0.10607">
        <ele>27</ele>
        <time>2021-07-29T08:21:37Z</time>
      </trkpt>
      <trkpt lat="47.24552" lon="0.10621">
        <ele>27</ele>
        <time>2021-07-29T08:21:46Z</time>
      </trkpt>
      <trkpt lat="47.24549" lon="0.10633">
        <ele>27</ele>
        <time>2021-07-29T08:21:54Z</time>
      </trkpt>
      <trkpt lat="47.24545" lon="0.10648">
        <ele>27</ele>
        <time>2021-07-29T08:22:03Z</time>
      </trkpt>
      <trkpt lat="47.24543" lon="0.10668">
        <ele>27</ele>
        <time>2021-07-29T08:22:13Z</time>
      </trkpt>
      <trkpt lat="47.24547" lon="0.10682">
        <ele>27</ele>
        <time>2021-07-29T08:22:22Z</time>
      </trkpt>
      <trkpt lat="47.24552" lon="0.10697">
        <ele>27</ele>
        <time>2021-07-29T08:22:30Z</time>
      </trkpt>
      <trkpt lat="47.24559" lon="0.10708">
        <ele>27</ele>
        <time>2021-07-29T08:22:38Z</time>
      </trkpt>
      <trkpt lat="47.24568" lon="0.10719">
        <ele>27</ele>
        <time>2021-07-29T08:22:46Z</time>
      </trkpt>
      <trkpt lat="47.24574" lon="0.1073">
        <ele>27</ele>
        <time>2021-07-29T08:22:54Z</time>
      </trkpt>
      <trkpt lat="47.24582" lon="0.10741">
        <ele>27</ele>
        <time>2021-07-29T08:23:02Z</time>
      </trkpt>
      <trkpt lat="47.24589" lon="0.1075">
        <ele>27</ele>
        <time>2021-07-29T08:23:10Z</time>
      </trkpt>
      <trkpt lat="47.24596" lon="0.1076">
        <ele>27</ele>
        <time>2021-07-29T08:23:18Z</time>
      </trkpt>
      <trkpt lat="47.24604" lon="0.10771">
        <ele>27</ele>
        <time>2021-07-29T08:23:27Z</time>
      </trkpt>
      <trkpt lat="47.246" lon="0.10785">
        <ele>27</ele>
        <time>2021-07-29T08:23:35Z</time>
      </trkpt>
      <trkpt lat="47.24593" lon="0.10794">
        <ele>27</ele>
        <time>2021-07-29T08:23:43Z</time>
      </trkpt>
      <trkpt lat="47.24584" lon="0.10803">
        <ele>27</ele>
        <time>2021-07-29T08:23:51Z</time>
      </trkpt>
      <trkpt lat="47.24576" lon="0.10813">
        <ele>27</ele>
        <time>2021-07-29T08:24:01Z</time>
      </trkpt>
      <trkpt lat="47.24571" lon="0.10828">
        <ele>27</ele>
        <time>2021-07-29T08:24:12Z</time>
      </trkpt>
      <trkpt lat="47.24569" lon="0.10844">
        <ele>27</ele>
        <time>2021-07-29T08:24:20Z</time>
      </trkpt>
      <trkpt lat="47.24568" lon="0.10859">
        <ele>27</ele>
        <time>2021-07-29T08:24:28Z</time>
      </trkpt>
      <trkpt lat="47.24567" lon="0.10876">
        <ele>27</ele>
        <time>2021-07-29T08:24:37Z</time>
      </trkpt>
      <trkpt lat="47.24566" lon="0.1089">
        <ele>27</ele>
        <time>2021-07-29T08:24:45Z</time>
      </trkpt>
      <trkpt lat="47.24565" lon="0.10906">
        <ele>27</ele>
        <time>2021-07-29T08:24:53Z</time>
      </trkpt>
      <trkpt lat="47.24566" lon="0.10921">
        <ele>27</ele>
        <time>2021-07-29T08:25:00Z</time>
      </trkpt>
      <trkpt lat="47.24563" lon="0.10934">
        <ele>27</ele>
        <time>2021-07-29T08:25:07Z</time>
      </trkpt>
      <trkpt lat="47.24563" lon="0.10949">
        <ele>27</ele>
        <time>2021-07-29T08:25:14Z</time>
      </trkpt>
      <trkpt lat="47.2456" lon="0.10964">
        <ele>27</ele>
        <time>2021-07-29T08:25:21Z</time>
      </trkpt>
      <trkpt lat="47.24558" lon="0.10978">
        <ele>27</ele>
        <time>2021-07-29T08:25:28Z</time>
      </trkpt>
      <trkpt lat="47.24554" lon="0.10993">
        <ele>27</ele>
        <time>2021-07-29T08:25:36Z</time>
      </trkpt>
      <trkpt lat="47.24549" lon="0.11006">
        <ele>27</ele>
        <time>2021-07-29T08:25:43Z</time>
      </trkpt>
      <trkpt lat="47.24544" lon="0.11019">
        <ele>27</ele>
        <time>2021-07-29T08:25:50Z</time>
      </trkpt>
      <trkpt lat="47.24536" lon="0.11026">
        <ele>27</ele>
        <time>2021-07-29T08:25:58Z</time>
      </trkpt>
      <trkpt lat="47.24526" lon="0.11023">
        <ele>27</ele>
        <time>2021-07-29T08:26:05Z</time>
      </trkpt>
      <trkpt lat="47.24517" lon="0.11019">
        <ele>27</ele>
        <time>2021-07-29T08:26:12Z</time>
      </trkpt>
      <trkpt lat="47.24508" lon="0.11015">
        <ele>27</ele>
        <time>2021-07-29T08:26:19Z</time>
      </trkpt>
      <trkpt lat="47.24499" lon="0.11011">
        <ele>27</ele>
        <time>2021-07-29T08:26:27Z</time>
      </trkpt>
      <trkpt lat="47.24489" lon="0.11008">
        <ele>27</ele>
        <time>2021-07-29T08:26:35Z</time>
      </trkpt>
      <trkpt lat="47.24479" lon="0.11008">
        <ele>27</ele>
        <time>2021-07-29T08:26:43Z</time>
      </trkpt>
      <trkpt lat="47.2447" lon="0.1101">
        <ele>27</ele>
        <time>2021-07-29T08:26:55Z</time>
      </trkpt>
      <trkpt lat="47.24464" lon="0.11011">
        <ele>27</ele>
        <time>2021-07-29T08:27:37Z</time>
      </trkpt>
      <trkpt lat="47.24455" lon="0.11009">
        <ele>27</ele>
        <time>2021-07-29T08:28:11Z</time>
      </trkpt>
      <trkpt lat="47.24445" lon="0.11009">
        <ele>27</ele>
        <time>2021-07-29T08:28:21Z</time>
      </trkpt>
      <trkpt lat="47.24437" lon="0.11013">
        <ele>28</ele>
        <time>2021-07-29T08:28:35Z</time>
      </trkpt>
      <trkpt lat="47.24428" lon="0.11016">
        <ele>28</ele>
        <time>2021-07-29T08:28:43Z</time>
      </trkpt>
      <trkpt lat="47.2442" lon="0.11016">
        <ele>28</ele>
        <time>2021-07-29T08:28:53Z</time>
      </trkpt>
      <trkpt lat="47.24409" lon="0.1102">
        <ele>28</ele>
        <time>2021-07-29T08:29:02Z</time>
      </trkpt>
      <trkpt lat="47.244" lon="0.11021">
        <ele>28</ele>
        <time>2021-07-29T08:29:10Z</time>
      </trkpt>
      <trkpt lat="47.2439" lon="0.11024">
        <ele>28</ele>
        <time>2021-07-29T08:29:18Z</time>
      </trkpt>
      <trkpt lat="47.2438" lon="0.11028">
        <ele>28</ele>
        <time>2021-07-29T08:29:25Z</time>
      </trkpt>
      <trkpt lat="47.24371" lon="0.11033">
        <ele>28</ele>
        <time>2021-07-29T08:29:33Z</time>
      </trkpt>
      <trkpt lat="47.24362" lon="0.11035">
        <ele>28</ele>
        <time>2021-07-29T08:29:41Z</time>
      </trkpt>
      <trkpt lat="47.24352" lon="0.11035">
        <ele>28</ele>
        <time>2021-07-29T08:29:48Z</time>
      </trkpt>
      <trkpt lat="47.24343" lon="0.11036">
        <ele>28</ele>
        <time>2021-07-29T08:29:56Z</time>
      </trkpt>
      <trkpt lat="47.24334" lon="0.11043">
        <ele>28</ele>
        <time>2021-07-29T08:30:04Z</time>
      </trkpt>
      <trkpt lat="47.24324" lon="0.11048">
        <ele>28</ele>
        <time>2021-07-29T08:30:12Z</time>
      </trkpt>
      <trkpt lat="47.24314" lon="0.11048">
        <ele>28</ele>
        <time>2021-07-29T08:30:19Z</time>
      </trkpt>
      <trkpt lat="47.24304" lon="0.1105">
        <ele>28</ele>
        <time>2021-07-29T08:30:29Z</time>
      </trkpt>
      <trkpt lat="47.24298" lon="0.11057">
        <ele>28</ele>
        <time>2021-07-29T08:31:14Z</time>
      </trkpt>
      <trkpt lat="47.24292" lon="0.11065">
        <ele>28</ele>
        <time>2021-07-29T08:31:56Z</time>
      </trkpt>
      <trkpt lat="47.24285" lon="0.11076">
        <ele>28</ele>
        <time>2021-07-29T08:32:04Z</time>
      </trkpt>
      <trkpt lat="47.2428" lon="0.11086">
        <ele>28</ele>
        <time>2021-07-29T08:32:12Z</time>
      </trkpt>
      <trkpt lat="47.24272" lon="0.11095">
        <ele>28</ele>
        <time>2021-07-29T08:32:21Z</time>
      </trkpt>
      <trkpt lat="47.24263" lon="0.11101">
        <ele>28</ele>
        <time>2021-07-29T08:32:29Z</time>
      </trkpt>
      <trkpt lat="47.24253" lon="0.11108">
        <ele>28</ele>
        <time>2021-07-29T08:32:38Z</time>
      </trkpt>
      <trkpt lat="47.24244" lon="0.11113">
        <ele>28</ele>
        <time>2021-07-29T08:32:46Z</time>
      </trkpt>
      <trkpt lat="47.24234" lon="0.11118">
        <ele>28</ele>
        <time>2021-07-29T08:32:54Z</time>
      </trkpt>
      <trkpt lat="47.24225" lon="0.11124">
        <ele>28</ele>
        <time>2021-07-29T08:33:01Z</time>
      </trkpt>
      <trkpt lat="47.24217" lon="0.11129">
        <ele>28</ele>
        <time>2021-07-29T08:33:09Z</time>
      </trkpt>
      <trkpt lat="47.24207" lon="0.11132">
        <ele>28</ele>
        <time>2021-07-29T08:33:16Z</time>
      </trkpt>
      <trkpt lat="47.24199" lon="0.11138">
        <ele>28</ele>
        <time>2021-07-29T08:33:23Z</time>
      </trkpt>
      <trkpt lat="47.24189" lon="0.11144">
        <ele>28</ele>
        <time>2021-07-29T08:33:32Z</time>
      </trkpt>
      <trkpt lat="47.24179" lon="0.11147">
        <ele>28</ele>
        <time>2021-07-29T08:35:15Z</time>
      </trkpt>
      <trkpt lat="47.2417" lon="0.11154">
        <ele>28</ele>
        <time>2021-07-29T08:35:23Z</time>
      </trkpt>
      <trkpt lat="47.24161" lon="0.11162">
        <ele>28</ele>
        <time>2021-07-29T08:35:31Z</time>
      </trkpt>
      <trkpt lat="47.24153" lon="0.11168">
        <ele>28</ele>
        <time>2021-07-29T08:35:38Z</time>
      </trkpt>
      <trkpt lat="47.24146" lon="0.11175">
        <ele>28</ele>
        <time>2021-07-29T08:35:46Z</time>
      </trkpt>
      <trkpt lat="47.24138" lon="0.11183">
        <ele>28</ele>
        <time>2021-07-29T08:35:53Z</time>
      </trkpt>
      <trkpt lat="47.24131" lon="0.11192">
        <ele>28</ele>
        <time>2021-07-29T08:36:00Z</time>
      </trkpt>
      <trkpt lat="47.24124" lon="0.11203">
        <ele>28</ele>
        <time>2021-07-29T08:36:08Z</time>
      </trkpt>
      <trkpt lat="47.24117" lon="0.11214">
        <ele>28</ele>
        <time>2021-07-29T08:36:15Z</time>
      </trkpt>
      <trkpt lat="47.2411" lon="0.11225">
        <ele>28</ele>
        <time>2021-07-29T08:36:22Z</time>
      </trkpt>
      <trkpt lat="47.24104" lon="0.11236">
        <ele>28</ele>
        <time>2021-07-29T08:36:30Z</time>
      </trkpt>
      <trkpt lat="47.24097" lon="0.11247">
        <ele>28</ele>
        <time>2021-07-29T08:36:38Z</time>
      </trkpt>
      <trkpt lat="47.2409" lon="0.11257">
        <ele>28</ele>
        <time>2021-07-29T08:36:45Z</time>
      </trkpt>
      <trkpt lat="47.24082" lon="0.11265">
        <ele>28</ele>
        <time>2021-07-29T08:36:53Z</time>
      </trkpt>
      <trkpt lat="47.24075" lon="0.11274">
        <ele>28</ele>
        <time>2021-07-29T08:37:00Z</time>
      </trkpt>
      <trkpt lat="47.24067" lon="0.11282">
        <ele>28</ele>
        <time>2021-07-29T08:37:08Z</time>
      </trkpt>
      <trkpt lat="47.24058" lon="0.11291">
        <ele>28</ele>
        <time>2021-07-29T08:37:15Z</time>
      </trkpt>
      <trkpt lat="47.24051" lon="0.113">
        <ele>28</ele>
        <time>2021-07-29T08:37:22Z</time>
      </trkpt>
      <trkpt lat="47.24043" lon="0.11306">
        <ele>28</ele>
        <time>2021-07-29T08:37:29Z</time>
      </trkpt>
      <trkpt lat="47.24035" lon="0.11313">
        <ele>28</ele>
        <time>2021-07-29T08:37:38Z</time>
      </trkpt>
      <trkpt lat="47.24026" lon="0.11323">
        <ele>28</ele>
        <time>2021-07-29T08:37:46Z</time>
      </trkpt>
      <trkpt lat="47.24017" lon="0.11333">
        <ele>29</ele>
        <time>2021-07-29T08:37:55Z</time>
      </trkpt>
      <trkpt lat="47.2401" lon="0.11343">
        <ele>29</ele>
        <time>2021-07-29T08:38:02Z</time>
      </trkpt>
      <trkpt lat="47.24002" lon="0.11352">
        <ele>29</ele>
        <time>2021-07-29T08:38:10Z</time>
      </trkpt>
      <trkpt lat="47.23995" lon="0.11362">
        <ele>29</ele>
        <time>2021-07-29T08:38:18Z</time>
      </trkpt>
      <trkpt lat="47.23988" lon="0.11372">
        <ele>29</ele>
        <time>2021-07-29T08:38:26Z</time>
      </trkpt>
      <trkpt lat="47.23988" lon="0.11385">
        <ele>29</ele>
        <time>2021-07-29T08:38:38Z</time>
      </trkpt>
      <trkpt lat="47.23986" lon="0.11398">
        <ele>29</ele>
        <time>2021-07-29T08:38:46Z</time>
      </trkpt>
      <trkpt lat="47.23984" lon="0.11413">
        <ele>30</ele>
        <time>2021-07-29T08:38:58Z</time>
      </trkpt>
      <trkpt lat="47.23984" lon="0.11423">
        <ele>31</ele>
        <time>2021-07-29T08:39:22Z</time>
      </trkpt>
      <trkpt lat="47.23977" lon="0.11425">
        <ele>30</ele>
        <time>2021-07-29T08:40:16Z</time>
      </trkpt>
      <trkpt lat="47.23972" lon="0.11425">
        <ele>30</ele>
        <time>2021-07-29T08:40:38Z</time>
      </trkpt>
      <trkpt lat="47.23962" lon="0.11428">
        <ele>31</ele>
        <time>2021-07-29T08:40:54Z</time>
      </trkpt>
      <trkpt lat="47.23952" lon="0.11431">
        <ele>31</ele>
        <time>2021-07-29T08:41:03Z</time>
      </trkpt>
      <trkpt lat="47.23942" lon="0.11433">
        <ele>31</ele>
        <time>2021-07-29T08:41:12Z</time>
      </trkpt>
      <trkpt lat="47.23932" lon="0.11438">
        <ele>31</ele>
        <time>2021-07-29T08:41:23Z</time>
      </trkpt>
      <trkpt lat="47.23922" lon="0.11441">
        <ele>30</ele>
        <time>2021-07-29T08:41:31Z</time>
      </trkpt>
      <trkpt lat="47.23913" lon="0.11442">
        <ele>30</ele>
        <time>2021-07-29T08:41:40Z</time>
      </trkpt>
      <trkpt lat="47.23903" lon="0.11445">
        <ele>30</ele>
        <time>2021-07-29T08:41:48Z</time>
      </trkpt>
      <trkpt lat="47.23893" lon="0.11451">
        <ele>31</ele>
        <time>2021-07-29T08:41:57Z</time>
      </trkpt>
      <trkpt lat="47.23885" lon="0.11454">
        <ele>30</ele>
        <time>2021-07-29T08:42:13Z</time>
      </trkpt>
      <trkpt lat="47.23875" lon="0.11457">
        <ele>31</ele>
        <time>2021-07-29T08:42:23Z</time>
      </trkpt>
      <trkpt lat="47.23866" lon="0.1146">
        <ele>31</ele>
        <time>2021-07-29T08:42:31Z</time>
      </trkpt>
      <trkpt lat="47.23857" lon="0.11462">
        <ele>31</ele>
        <time>2021-07-29T08:42:39Z</time>
      </trkpt>
      <trkpt lat="47.23848" lon="0.11466">
        <ele>31</ele>
        <time>2021-07-29T08:42:47Z</time>
      </trkpt>
      <trkpt lat="47.23839" lon="0.1147">
        <ele>31</ele>
        <time>2021-07-29T08:42:55Z</time>
      </trkpt>
      <trkpt lat="47.23829" lon="0.11473">
        <ele>31</ele>
        <time>2021-07-29T08:43:03Z</time>
      </trkpt>
      <trkpt lat="47.23821" lon="0.11475">
        <ele>31</ele>
        <time>2021-07-29T08:43:10Z</time>
      </trkpt>
      <trkpt lat="47.23822" lon="0.11477">
        <ele>31</ele>
        <time>2021-07-29T08:43:25Z</time>
      </trkpt>
      <trkpt lat="47.23831" lon="0.11477">
        <ele>31</ele>
        <time>2021-07-29T08:43:33Z</time>
      </trkpt>
      <trkpt lat="47.23834" lon="0.11488">
        <ele>31</ele>
        <time>2021-07-29T08:43:51Z</time>
      </trkpt>
      <trkpt lat="47.23836" lon="0.11502">
        <ele>31</ele>
        <time>2021-07-29T08:43:59Z</time>
      </trkpt>
      <trkpt lat="47.23838" lon="0.11515">
        <ele>31</ele>
        <time>2021-07-29T08:44:23Z</time>
      </trkpt>
      <trkpt lat="47.23839" lon="0.11529">
        <ele>31</ele>
        <time>2021-07-29T08:44:33Z</time>
      </trkpt>
      <trkpt lat="47.23841" lon="0.11543">
        <ele>31</ele>
        <time>2021-07-29T08:44:41Z</time>
      </trkpt>
      <trkpt lat="47.23843" lon="0.11559">
        <ele>31</ele>
        <time>2021-07-29T08:44:49Z</time>
      </trkpt>
      <trkpt lat="47.23845" lon="0.11573">
        <ele>31</ele>
        <time>2021-07-29T08:44:58Z</time>
      </trkpt>
      <trkpt lat="47.23847" lon="0.11587">
        <ele>31</ele>
        <time>2021-07-29T08:45:06Z</time>
      </trkpt>
      <trkpt lat="47.23849" lon="0.116">
        <ele>31</ele>
        <time>2021-07-29T08:45:14Z</time>
      </trkpt>
      <trkpt lat="47.23852" lon="0.11613">
        <ele>31</ele>
        <time>2021-07-29T08:45:22Z</time>
      </trkpt>
      <trkpt lat="47.23853" lon="0.11626">
        <ele>31</ele>
        <time>2021-07-29T08:45:30Z</time>
      </trkpt>
      <trkpt lat="47.23855" lon="0.11639">
        <ele>31</ele>
        <time>2021-07-29T08:45:38Z</time>
      </trkpt>
      <trkpt lat="47.23857" lon="0.11652">
        <ele>31</ele>
        <time>2021-07-29T08:45:46Z</time>
      </trkpt>
      <trkpt lat="47.2386" lon="0.11666">
        <ele>31</ele>
        <time>2021-07-29T08:45:54Z</time>
      </trkpt>
      <trkpt lat="47.23862" lon="0.11679">
        <ele>31</ele>
        <time>2021-07-29T08:46:02Z</time>
      </trkpt>
      <trkpt lat="47.23864" lon="0.11694">
        <ele>31</ele>
        <time>2021-07-29T08:46:11Z</time>
      </trkpt>
      <trkpt lat="47.23867" lon="0.11707">
        <ele>31</ele>
        <time>2021-07-29T08:46:19Z</time>
      </trkpt>
      <trkpt lat="47.2387" lon="0.1172">
        <ele>31</ele>
        <time>2021-07-29T08:46:27Z</time>
      </trkpt>
      <trkpt lat="47.23872" lon="0.11734">
        <ele>31</ele>
        <time>2021-07-29T08:46:35Z</time>
      </trkpt>
      <trkpt lat="47.23875" lon="0.11747">
        <ele>32</ele>
        <time>2021-07-29T08:46:43Z</time>
      </trkpt>
      <trkpt lat="47.23877" lon="0.11759">
        <ele>31</ele>
        <time>2021-07-29T08:46:52Z</time>
      </trkpt>
      <trkpt lat="47.2388" lon="0.11773">
        <ele>31</ele>
        <time>2021-07-29T08:47:00Z</time>
      </trkpt>
      <trkpt lat="47.23882" lon="0.11786">
        <ele>31</ele>
        <time>2021-07-29T08:47:07Z</time>
      </trkpt>
      <trkpt lat="47.23883" lon="0.118">
        <ele>31</ele>
        <time>2021-07-29T08:47:15Z</time>
      </trkpt>
      <trkpt lat="47.23885" lon="0.11814">
        <ele>31</ele>
        <time>2021-07-29T08:47:24Z</time>
      </trkpt>
      <trkpt lat="47.23888" lon="0.11828">
        <ele>32</ele>
        <time>2021-07-29T08:47:40Z</time>
      </trkpt>
      <trkpt lat="47.23889" lon="0.11843">
        <ele>31</ele>
        <time>2021-07-29T08:47:50Z</time>
      </trkpt>
      <trkpt lat="47.2389" lon="0.11855">
        <ele>31</ele>
        <time>2021-07-29T08:48:04Z</time>
      </trkpt>
      <trkpt lat="47.23891" lon="0.11869">
        <ele>31</ele>
        <time>2021-07-29T08:48:13Z</time>
      </trkpt>
      <trkpt lat="47.23893" lon="0.11884">
        <ele>31</ele>
        <time>2021-07-29T08:48:21Z</time>
      </trkpt>
      <trkpt lat="47.23894" lon="0.11898">
        <ele>31</ele>
        <time>2021-07-29T08:48:30Z</time>
      </trkpt>
      <trkpt lat="47.23895" lon="0.11912">
        <ele>31</ele>
        <time>2021-07-29T08:48:38Z</time>
      </trkpt>
      <trkpt lat="47.23896" lon="0.11926">
        <ele>32</ele>
        <time>2021-07-29T08:48:46Z</time>
      </trkpt>
      <trkpt lat="47.23896" lon="0.11934">
        <ele>32</ele>
        <time>2021-07-29T08:49:54Z</time>
      </trkpt>
      <trkpt lat="47.23887" lon="0.1194">
        <ele>31</ele>
        <time>2021-07-29T08:50:15Z</time>
      </trkpt>
      <trkpt lat="47.23878" lon="0.11942">
        <ele>32</ele>
        <time>2021-07-29T08:50:25Z</time>
      </trkpt>
      <trkpt lat="47.23868" lon="0.11945">
        <ele>32</ele>
        <time>2021-07-29T08:50:35Z</time>
      </trkpt>
      <trkpt lat="47.2386" lon="0.11948">
        <ele>32</ele>
        <time>2021-07-29T08:50:56Z</time>
      </trkpt>
      <trkpt lat="47.2385" lon="0.1195">
        <ele>32</ele>
        <time>2021-07-29T08:51:05Z</time>
      </trkpt>
      <trkpt lat="47.2384" lon="0.11952">
        <ele>32</ele>
        <time>2021-07-29T08:51:13Z</time>
      </trkpt>
      <trkpt lat="47.23831" lon="0.11951">
        <ele>32</ele>
        <time>2021-07-29T08:51:28Z</time>
      </trkpt>
      <trkpt lat="47.2382" lon="0.11951">
        <ele>32</ele>
        <time>2021-07-29T08:51:44Z</time>
      </trkpt>
      <trkpt lat="47.23809" lon="0.11952">
        <ele>32</ele>
        <time>2021-07-29T08:51:53Z</time>
      </trkpt>
      <trkpt lat="47.23799" lon="0.11949">
        <ele>32</ele>
        <time>2021-07-29T08:52:20Z</time>
      </trkpt>
      <trkpt lat="47.23788" lon="0.11949">
        <ele>32</ele>
        <time>2021-07-29T08:52:31Z</time>
      </trkpt>
      <trkpt lat="47.23787" lon="0.11951">
        <ele>31</ele>
        <time>2021-07-29T08:54:24Z</time>
      </trkpt>
      <trkpt lat="47.23776" lon="0.11953">
        <ele>32</ele>
        <time>2021-07-29T08:54:47Z</time>
      </trkpt>
      <trkpt lat="47.23765" lon="0.11955">
        <ele>31</ele>
        <time>2021-07-29T08:54:57Z</time>
      </trkpt>
      <trkpt lat="47.23757" lon="0.11951">
        <ele>31</ele>
        <time>2021-07-29T08:55:08Z</time>
      </trkpt>
      <trkpt lat="47.23747" lon="0.1195">
        <ele>31</ele>
        <time>2021-07-29T08:55:18Z</time>
      </trkpt>
      <trkpt lat="47.23738" lon="0.11951">
        <ele>31</ele>
        <time>2021-07-29T08:55:26Z</time>
      </trkpt>
      <trkpt lat="47.23728" lon="0.11952">
        <ele>31</ele>
        <time>2021-07-29T08:55:35Z</time>
      </trkpt>
      <trkpt lat="47.23718" lon="0.11952">
        <ele>32</ele>
        <time>2021-07-29T08:55:43Z</time>
      </trkpt>
      <trkpt lat="47.23709" lon="0.11954">
        <ele>31</ele>
        <time>2021-07-29T08:55:51Z</time>
      </trkpt>
      <trkpt lat="47.23698" lon="0.11951">
        <ele>31</ele>
        <time>2021-07-29T08:56:09Z</time>
      </trkpt>
      <trkpt lat="47.2369" lon="0.11947">
        <ele>32</ele>
        <time>2021-07-29T08:57:17Z</time>
      </trkpt>
      <trkpt lat="47.2368" lon="0.11951">
        <ele>32</ele>
        <time>2021-07-29T08:57:25Z</time>
      </trkpt>
      <trkpt lat="47.23672" lon="0.11956">
        <ele>32</ele>
        <time>2021-07-29T08:57:44Z</time>
      </trkpt>
      <trkpt lat="47.23663" lon="0.11959">
        <ele>32</ele>
        <time>2021-07-29T08:57:52Z</time>
      </trkpt>
      <trkpt lat="47.23653" lon="0.11962">
        <ele>31</ele>
        <time>2021-07-29T08:57:59Z</time>
      </trkpt>
      <trkpt lat="47.23644" lon="0.11965">
        <ele>32</ele>
        <time>2021-07-29T08:58:07Z</time>
      </trkpt>
      <trkpt lat="47.23634" lon="0.11966">
        <ele>32</ele>
        <time>2021-07-29T08:58:14Z</time>
      </trkpt>
      <trkpt lat="47.23625" lon="0.11963">
        <ele>32</ele>
        <time>2021-07-29T08:58:27Z</time>
      </trkpt>
      <trkpt lat="47.23617" lon="0.11966">
        <ele>32</ele>
        <time>2021-07-29T09:01:05Z</time>
      </trkpt>
      <trkpt lat="47.23606" lon="0.11969">
        <ele>32</ele>
        <time>2021-07-29T09:01:15Z</time>
      </trkpt>
      <trkpt lat="47.23597" lon="0.1197">
        <ele>32</ele>
        <time>2021-07-29T09:01:23Z</time>
      </trkpt>
      <trkpt lat="47.23586" lon="0.11972">
        <ele>32</ele>
        <time>2021-07-29T09:01:36Z</time>
      </trkpt>
      <trkpt lat="47.23577" lon="0.11978">
        <ele>32</ele>
        <time>2021-07-29T09:01:44Z</time>
      </trkpt>
      <trkpt lat="47.23567" lon="0.11987">
        <ele>33</ele>
        <time>2021-07-29T09:01:53Z</time>
      </trkpt>
      <trkpt lat="47.23559" lon="0.11992">
        <ele>33</ele>
        <time>2021-07-29T09:02:02Z</time>
      </trkpt>
      <trkpt lat="47.23557" lon="0.11996">
        <ele>33</ele>
        <time>2021-07-29T09:02:37Z</time>
      </trkpt>
      <trkpt lat="47.23547" lon="0.12">
        <ele>33</ele>
        <time>2021-07-29T09:02:59Z</time>
      </trkpt>
      <trkpt lat="47.23536" lon="0.12004">
        <ele>33</ele>
        <time>2021-07-29T09:03:08Z</time>
      </trkpt>
      <trkpt lat="47.23525" lon="0.12006">
        <ele>33</ele>
        <time>2021-07-29T09:03:21Z</time>
      </trkpt>
      <trkpt lat="47.23515" lon="0.1201">
        <ele>34</ele>
        <time>2021-07-29T09:03:29Z</time>
      </trkpt>
      <trkpt lat="47.23507" lon="0.12017">
        <ele>35</ele>
        <time>2021-07-29T09:03:41Z</time>
      </trkpt>
      <trkpt lat="47.23506" lon="0.12031">
        <ele>35</ele>
        <time>2021-07-29T09:03:50Z</time>
      </trkpt>
      <trkpt lat="47.235" lon="0.1204">
        <ele>36</ele>
        <time>2021-07-29T09:04:25Z</time>
      </trkpt>
      <trkpt lat="47.23498" lon="0.1203">
        <ele>37</ele>
        <time>2021-07-29T09:04:52Z</time>
      </trkpt>
      <trkpt lat="47.23492" lon="0.1202">
        <ele>36</ele>
        <time>2021-07-29T09:06:31Z</time>
      </trkpt>
      <trkpt lat="47.23482" lon="0.12024">
        <ele>34</ele>
        <time>2021-07-29T09:06:48Z</time>
      </trkpt>
      <trkpt lat="47.23476" lon="0.12025">
        <ele>34</ele>
        <time>2021-07-29T09:07:20Z</time>
      </trkpt>
      <trkpt lat="47.23475" lon="0.12023">
        <ele>34</ele>
        <time>2021-07-29T09:07:52Z</time>
      </trkpt>
      <trkpt lat="47.23469" lon="0.12027">
        <ele>33</ele>
        <time>2021-07-29T09:08:41Z</time>
      </trkpt>
      <trkpt lat="47.23461" lon="0.12025">
        <ele>33</ele>
        <time>2021-07-29T09:09:30Z</time>
      </trkpt>
      <trkpt lat="47.23451" lon="0.1203">
        <ele>33</ele>
        <time>2021-07-29T09:09:43Z</time>
      </trkpt>
      <trkpt lat="47.23441" lon="0.12032">
        <ele>33</ele>
        <time>2021-07-29T09:09:56Z</time>
      </trkpt>
      <trkpt lat="47.23431" lon="0.12033">
        <ele>33</ele>
        <time>2021-07-29T09:10:06Z</time>
      </trkpt>
      <trkpt lat="47.23422" lon="0.12036">
        <ele>32</ele>
        <time>2021-07-29T09:10:22Z</time>
      </trkpt>
      <trkpt lat="47.23418" lon="0.12041">
        <ele>32</ele>
        <time>2021-07-29T09:10:50Z</time>
      </trkpt>
      <trkpt lat="47.23418" lon="0.12038">
        <ele>33</ele>
        <time>2021-07-29T09:11:27Z</time>
      </trkpt>
      <trkpt lat="47.23415" lon="0.12039">
        <ele>33</ele>
        <time>2021-07-29T09:11:55Z</time>
      </trkpt>
      <trkpt lat="47.23415" lon="0.12041">
        <ele>32</ele>
        <time>2021-07-29T09:12:35Z</time>
      </trkpt>
      <trkpt lat="47.23415" lon="0.12043">
        <ele>33</ele>
        <time>2021-07-29T09:13:12Z</time>
      </trkpt>
      <trkpt lat="47.23414" lon="0.12033">
        <ele>33</ele>
        <time>2021-07-29T09:13:36Z</time>
      </trkpt>
      <trkpt lat="47.23408" lon="0.12029">
        <ele>33</ele>
        <time>2021-07-29T09:13:54Z</time>
      </trkpt>
      <trkpt lat="47.23399" lon="0.1202">
        <ele>33</ele>
        <time>2021-07-29T09:14:12Z</time>
      </trkpt>
      <trkpt lat="47.23394" lon="0.12008">
        <ele>32</ele>
        <time>2021-07-29T09:14:25Z</time>
      </trkpt>
      <trkpt lat="47.23387" lon="0.11996">
        <ele>33</ele>
        <time>2021-07-29T09:14:56Z</time>
      </trkpt>
      <trkpt lat="47.23379" lon="0.11985">
        <ele>33</ele>
        <time>2021-07-29T09:15:09Z</time>
      </trkpt>
      <trkpt lat="47.23371" lon="0.11973">
        <ele>33</ele>
        <time>2021-07-29T09:15:24Z</time>
      </trkpt>
      <trkpt lat="47.23364" lon="0.11961">
        <ele>33</ele>
        <time>2021-07-29T09:15:35Z</time>
      </trkpt>
      <trkpt lat="47.23356" lon="0.11948">
        <ele>33</ele>
        <time>2021-07-29T09:15:45Z</time>
      </trkpt>
      <trkpt lat="47.23348" lon="0.11935">
        <ele>33</ele>
        <time>2021-07-29T09:15:58Z</time>
      </trkpt>
      <trkpt lat="47.23339" lon="0.11921">
        <ele>33</ele>
        <time>2021-07-29T09:16:08Z</time>
      </trkpt>
      <trkpt lat="47.23332" lon="0.11906">
        <ele>33</ele>
        <time>2021-07-29T09:16:19Z</time>
      </trkpt>
      <trkpt lat="47.23324" lon="0.11893">
        <ele>33</ele>
        <time>2021-07-29T09:16:29Z</time>
      </trkpt>
      <trkpt lat="47.23315" lon="0.11881">
        <ele>33</ele>
        <time>2021-07-29T09:16:39Z</time>
      </trkpt>
      <trkpt lat="47.23308" lon="0.11867">
        <ele>33</ele>
        <time>2021-07-29T09:16:48Z</time>
      </trkpt>
      <trkpt lat="47.233" lon="0.11851">
        <ele>33</ele>
        <time>2021-07-29T09:16:59Z</time>
      </trkpt>
      <trkpt lat="47.23294" lon="0.11834">
        <ele>33</ele>
        <time>2021-07-29T09:17:08Z</time>
      </trkpt>
      <trkpt lat="47.23288" lon="0.11817">
        <ele>32</ele>
        <time>2021-07-29T09:17:16Z</time>
      </trkpt>
      <trkpt lat="47.23279" lon="0.11803">
        <ele>33</ele>
        <time>2021-07-29T09:17:25Z</time>
      </trkpt>
      <trkpt lat="47.23273" lon="0.11787">
        <ele>33</ele>
        <time>2021-07-29T09:17:35Z</time>
      </trkpt>
      <trkpt lat="47.23265" lon="0.11773">
        <ele>33</ele>
        <time>2021-07-29T09:17:44Z</time>
      </trkpt>
      <trkpt lat="47.23257" lon="0.11761">
        <ele>33</ele>
        <time>2021-07-29T09:17:52Z</time>
      </trkpt>
      <trkpt lat="47.23249" lon="0.1175">
        <ele>33</ele>
        <time>2021-07-29T09:18:02Z</time>
      </trkpt>
      <trkpt lat="47.23239" lon="0.1174">
        <ele>33</ele>
        <time>2021-07-29T09:18:11Z</time>
      </trkpt>
      <trkpt lat="47.23229" lon="0.1173">
        <ele>33</ele>
        <time>2021-07-29T09:18:21Z</time>
      </trkpt>
      <trkpt lat="47.2322" lon="0.1172">
        <ele>33</ele>
        <time>2021-07-29T09:18:31Z</time>
      </trkpt>
      <trkpt lat="47.23211" lon="0.11711">
        <ele>33</ele>
        <time>2021-07-29T09:18:41Z</time>
      </trkpt>
      <trkpt lat="47.23201" lon="0.117">
        <ele>33</ele>
        <time>2021-07-29T09:18:50Z</time>
      </trkpt>
      <trkpt lat="47.23192" lon="0.11688">
        <ele>33</ele>
        <time>2021-07-29T09:18:58Z</time>
      </trkpt>
      <trkpt lat="47.23184" lon="0.11676">
        <ele>33</ele>
        <time>2021-07-29T09:19:07Z</time>
      </trkpt>
      <trkpt lat="47.23176" lon="0.1166">
        <ele>33</ele>
        <time>2021-07-29T09:19:19Z</time>
      </trkpt>
      <trkpt lat="47.23166" lon="0.11645">
        <ele>33</ele>
        <time>2021-07-29T09:19:30Z</time>
      </trkpt>
      <trkpt lat="47.23158" lon="0.1163">
        <ele>33</ele>
        <time>2021-07-29T09:19:38Z</time>
      </trkpt>
      <trkpt lat="47.23148" lon="0.11616">
        <ele>33</ele>
        <time>2021-07-29T09:19:46Z</time>
      </trkpt>
      <trkpt lat="47.23142" lon="0.11603">
        <ele>34</ele>
        <time>2021-07-29T09:19:55Z</time>
      </trkpt>
      <trkpt lat="47.23135" lon="0.11587">
        <ele>33</ele>
        <time>2021-07-29T09:20:03Z</time>
      </trkpt>
      <trkpt lat="47.23129" lon="0.11572">
        <ele>33</ele>
        <time>2021-07-29T09:20:11Z</time>
      </trkpt>
      <trkpt lat="47.23124" lon="0.11557">
        <ele>33</ele>
        <time>2021-07-29T09:20:19Z</time>
      </trkpt>
      <trkpt lat="47.23118" lon="0.11543">
        <ele>33</ele>
        <time>2021-07-29T09:20:27Z</time>
      </trkpt>
      <trkpt lat="47.23112" lon="0.11531">
        <ele>33</ele>
        <time>2021-07-29T09:20:36Z</time>
      </trkpt>
      <trkpt lat="47.23106" lon="0.11515">
        <ele>33</ele>
        <time>2021-07-29T09:20:46Z</time>
      </trkpt>
      <trkpt lat="47.23102" lon="0.11501">
        <ele>33</ele>
        <time>2021-07-29T09:20:54Z</time>
      </trkpt>
      <trkpt lat="47.23097" lon="0.11486">
        <ele>33</ele>
        <time>2021-07-29T09:21:03Z</time>
      </trkpt>
      <trkpt lat="47.23092" lon="0.11472">
        <ele>34</ele>
        <time>2021-07-29T09:21:11Z</time>
      </trkpt>
      <trkpt lat="47.23089" lon="0.11458">
        <ele>34</ele>
        <time>2021-07-29T09:21:19Z</time>
      </trkpt>
      <trkpt lat="47.23084" lon="0.11442">
        <ele>34</ele>
        <time>2021-07-29T09:21:28Z</time>
      </trkpt>
      <trkpt lat="47.23078" lon="0.11425">
        <ele>34</ele>
        <time>2021-07-29T09:21:37Z</time>
      </trkpt>
      <trkpt lat="47.23074" lon="0.11411">
        <ele>34</ele>
        <time>2021-07-29T09:21:45Z</time>
      </trkpt>
      <trkpt lat="47.23069" lon="0.11395">
        <ele>34</ele>
        <time>2021-07-29T09:21:54Z</time>
      </trkpt>
      <trkpt lat="47.23065" lon="0.1138">
        <ele>34</ele>
        <time>2021-07-29T09:22:03Z</time>
      </trkpt>
      <trkpt lat="47.2306" lon="0.11366">
        <ele>34</ele>
        <time>2021-07-29T09:22:12Z</time>
      </trkpt>
      <trkpt lat="47.23056" lon="0.1135">
        <ele>34</ele>
        <time>2021-07-29T09:22:21Z</time>
      </trkpt>
      <trkpt lat="47.2305" lon="0.11338">
        <ele>34</ele>
        <time>2021-07-29T09:22:29Z</time>
      </trkpt>
      <trkpt lat="47.23047" lon="0.11323">
        <ele>34</ele>
        <time>2021-07-29T09:22:38Z</time>
      </trkpt>
      <trkpt lat="47.23043" lon="0.11306">
        <ele>34</ele>
        <time>2021-07-29T09:22:47Z</time>
      </trkpt>
      <trkpt lat="47.2304" lon="0.11291">
        <ele>34</ele>
        <time>2021-07-29T09:22:55Z</time>
      </trkpt>
      <trkpt lat="47.23034" lon="0.11283">
        <ele>34</ele>
        <time>2021-07-29T09:23:10Z</time>
      </trkpt>
      <trkpt lat="47.2303" lon="0.11267">
        <ele>34</ele>
        <time>2021-07-29T09:23:32Z</time>
      </trkpt>
      <trkpt lat="47.23024" lon="0.11251">
        <ele>34</ele>
        <time>2021-07-29T09:23:41Z</time>
      </trkpt>
      <trkpt lat="47.23019" lon="0.11239">
        <ele>34</ele>
        <time>2021-07-29T09:23:49Z</time>
      </trkpt>
      <trkpt lat="47.23015" lon="0.11226">
        <ele>34</ele>
        <time>2021-07-29T09:24:01Z</time>
      </trkpt>
      <trkpt lat="47.23011" lon="0.11214">
        <ele>34</ele>
        <time>2021-07-29T09:24:34Z</time>
      </trkpt>
      <trkpt lat="47.23006" lon="0.11202">
        <ele>34</ele>
        <time>2021-07-29T09:24:42Z</time>
      </trkpt>
      <trkpt lat="47.23001" lon="0.11189">
        <ele>33</ele>
        <time>2021-07-29T09:24:52Z</time>
      </trkpt>
      <trkpt lat="47.22996" lon="0.11175">
        <ele>33</ele>
        <time>2021-07-29T09:25:00Z</time>
      </trkpt>
      <trkpt lat="47.22991" lon="0.11164">
        <ele>33</ele>
        <time>2021-07-29T09:25:07Z</time>
      </trkpt>
      <trkpt lat="47.22985" lon="0.11151">
        <ele>33</ele>
        <time>2021-07-29T09:25:15Z</time>
      </trkpt>
      <trkpt lat="47.2298" lon="0.11139">
        <ele>34</ele>
        <time>2021-07-29T09:25:23Z</time>
      </trkpt>
      <trkpt lat="47.22974" lon="0.11126">
        <ele>33</ele>
        <time>2021-07-29T09:25:31Z</time>
      </trkpt>
      <trkpt lat="47.22968" lon="0.11113">
        <ele>34</ele>
        <time>2021-07-29T09:25:39Z</time>
      </trkpt>
      <trkpt lat="47.22962" lon="0.11102">
        <ele>34</ele>
        <time>2021-07-29T09:25:47Z</time>
      </trkpt>
      <trkpt lat="47.22956" lon="0.1109">
        <ele>34</ele>
        <time>2021-07-29T09:25:56Z</time>
      </trkpt>
      <trkpt lat="47.22949" lon="0.11077">
        <ele>34</ele>
        <time>2021-07-29T09:26:04Z</time>
      </trkpt>
      <trkpt lat="47.22943" lon="0.11065">
        <ele>34</ele>
        <time>2021-07-29T09:26:12Z</time>
      </trkpt>
      <trkpt lat="47.22936" lon="0.1105">
        <ele>34</ele>
        <time>2021-07-29T09:26:23Z</time>
      </trkpt>
      <trkpt lat="47.2293" lon="0.11037">
        <ele>34</ele>
        <time>2021-07-29T09:26:32Z</time>
      </trkpt>
      <trkpt lat="47.22927" lon="0.11023">
        <ele>34</ele>
        <time>2021-07-29T09:26:46Z</time>
      </trkpt>
      <trkpt lat="47.22917" lon="0.11013">
        <ele>34</ele>
        <time>2021-07-29T09:27:53Z</time>
      </trkpt>
      <trkpt lat="47.22911" lon="0.11002">
        <ele>33</ele>
        <time>2021-07-29T09:28:02Z</time>
      </trkpt>
      <trkpt lat="47.22903" lon="0.10992">
        <ele>33</ele>
        <time>2021-07-29T09:28:12Z</time>
      </trkpt>
      <trkpt lat="47.22896" lon="0.1098">
        <ele>33</ele>
        <time>2021-07-29T09:28:21Z</time>
      </trkpt>
      <trkpt lat="47.22889" lon="0.10968">
        <ele>33</ele>
        <time>2021-07-29T09:28:31Z</time>
      </trkpt>
      <trkpt lat="47.22881" lon="0.10956">
        <ele>33</ele>
        <time>2021-07-29T09:28:42Z</time>
      </trkpt>
      <trkpt lat="47.22875" lon="0.10944">
        <ele>33</ele>
        <time>2021-07-29T09:28:51Z</time>
      </trkpt>
      <trkpt lat="47.22867" lon="0.10928">
        <ele>33</ele>
        <time>2021-07-29T09:29:01Z</time>
      </trkpt>
      <trkpt lat="47.2286" lon="0.10912">
        <ele>33</ele>
        <time>2021-07-29T09:29:09Z</time>
      </trkpt>
      <trkpt lat="47.22852" lon="0.10901">
        <ele>33</ele>
        <time>2021-07-29T09:29:18Z</time>
      </trkpt>
      <trkpt lat="47.22843" lon="0.10893">
        <ele>33</ele>
        <time>2021-07-29T09:29:28Z</time>
      </trkpt>
      <trkpt lat="47.22835" lon="0.10882">
        <ele>33</ele>
        <time>2021-07-29T09:29:37Z</time>
      </trkpt>
      <trkpt lat="47.22827" lon="0.10868">
        <ele>33</ele>
        <time>2021-07-29T09:29:47Z</time>
      </trkpt>
      <trkpt lat="47.2282" lon="0.10858">
        <ele>33</ele>
        <time>2021-07-29T09:29:55Z</time>
      </trkpt>
      <trkpt lat="47.22813" lon="0.10842">
        <ele>33</ele>
        <time>2021-07-29T09:30:03Z</time>
      </trkpt>
      <trkpt lat="47.22804" lon="0.1083">
        <ele>33</ele>
        <time>2021-07-29T09:30:12Z</time>
      </trkpt>
      <trkpt lat="47.22797" lon="0.10816">
        <ele>33</ele>
        <time>2021-07-29T09:30:21Z</time>
      </trkpt>
      <trkpt lat="47.22792" lon="0.10802">
        <ele>33</ele>
        <time>2021-07-29T09:30:31Z</time>
      </trkpt>
      <trkpt lat="47.22786" lon="0.10785">
        <ele>33</ele>
        <time>2021-07-29T09:30:41Z</time>
      </trkpt>
      <trkpt lat="47.22782" lon="0.10766">
        <ele>33</ele>
        <time>2021-07-29T09:30:49Z</time>
      </trkpt>
      <trkpt lat="47.22778" lon="0.1075">
        <ele>33</ele>
        <time>2021-07-29T09:30:57Z</time>
      </trkpt>
      <trkpt lat="47.22774" lon="0.10735">
        <ele>33</ele>
        <time>2021-07-29T09:31:05Z</time>
      </trkpt>
      <trkpt lat="47.22771" lon="0.10721">
        <ele>33</ele>
        <time>2021-07-29T09:31:13Z</time>
      </trkpt>
      <trkpt lat="47.22765" lon="0.10705">
        <ele>33</ele>
        <time>2021-07-29T09:31:22Z</time>
      </trkpt>
      <trkpt lat="47.22759" lon="0.1069">
        <ele>33</ele>
        <time>2021-07-29T09:31:31Z</time>
      </trkpt>
      <trkpt lat="47.22752" lon="0.10675">
        <ele>33</ele>
        <time>2021-07-29T09:31:41Z</time>
      </trkpt>
      <trkpt lat="47.22749" lon="0.10659">
        <ele>33</ele>
        <time>2021-07-29T09:31:50Z</time>
      </trkpt>
      <trkpt lat="47.22742" lon="0.10645">
        <ele>33</ele>
        <time>2021-07-29T09:32:02Z</time>
      </trkpt>
      <trkpt lat="47.22735" lon="0.10632">
        <ele>33</ele>
        <time>2021-07-29T09:32:11Z</time>
      </trkpt>
      <trkpt lat="47.22729" lon="0.10618">
        <ele>33</ele>
        <time>2021-07-29T09:32:20Z</time>
      </trkpt>
      <trkpt lat="47.22724" lon="0.10603">
        <ele>33</ele>
        <time>2021-07-29T09:32:30Z</time>
      </trkpt>
      <trkpt lat="47.22717" lon="0.10589">
        <ele>33</ele>
        <time>2021-07-29T09:32:40Z</time>
      </trkpt>
      <trkpt lat="47.2271" lon="0.10573">
        <ele>33</ele>
        <time>2021-07-29T09:32:50Z</time>
      </trkpt>
      <trkpt lat="47.22702" lon="0.10554">
        <ele>33</ele>
        <time>2021-07-29T09:32:59Z</time>
      </trkpt>
      <trkpt lat="47.22692" lon="0.10539">
        <ele>33</ele>
        <time>2021-07-29T09:33:09Z</time>
      </trkpt>
      <trkpt lat="47.22685" lon="0.10524">
        <ele>34</ele>
        <time>2021-07-29T09:33:19Z</time>
      </trkpt>
      <trkpt lat="47.22676" lon="0.10511">
        <ele>33</ele>
        <time>2021-07-29T09:33:28Z</time>
      </trkpt>
      <trkpt lat="47.22669" lon="0.10497">
        <ele>33</ele>
        <time>2021-07-29T09:33:40Z</time>
      </trkpt>
      <trkpt lat="47.22659" lon="0.10484">
        <ele>33</ele>
        <time>2021-07-29T09:33:50Z</time>
      </trkpt>
      <trkpt lat="47.22649" lon="0.10473">
        <ele>33</ele>
        <time>2021-07-29T09:34:00Z</time>
      </trkpt>
      <trkpt lat="47.22641" lon="0.10462">
        <ele>32</ele>
        <time>2021-07-29T09:34:10Z</time>
      </trkpt>
      <trkpt lat="47.22635" lon="0.1045">
        <ele>32</ele>
        <time>2021-07-29T09:34:20Z</time>
      </trkpt>
      <trkpt lat="47.22625" lon="0.10439">
        <ele>32</ele>
        <time>2021-07-29T09:34:35Z</time>
      </trkpt>
      <trkpt lat="47.22618" lon="0.10428">
        <ele>32</ele>
        <time>2021-07-29T09:34:51Z</time>
      </trkpt>
      <trkpt lat="47.2261" lon="0.1042">
        <ele>32</ele>
        <time>2021-07-29T09:35:17Z</time>
      </trkpt>
      <trkpt lat="47.22601" lon="0.10412">
        <ele>32</ele>
        <time>2021-07-29T09:35:28Z</time>
      </trkpt>
      <trkpt lat="47.22593" lon="0.10399">
        <ele>32</ele>
        <time>2021-07-29T09:35:38Z</time>
      </trkpt>
      <trkpt lat="47.22585" lon="0.10386">
        <ele>32</ele>
        <time>2021-07-29T09:35:48Z</time>
      </trkpt>
      <trkpt lat="47.22578" lon="0.10372">
        <ele>32</ele>
        <time>2021-07-29T09:35:57Z</time>
      </trkpt>
      <trkpt lat="47.22572" lon="0.10357">
        <ele>32</ele>
        <time>2021-07-29T09:36:08Z</time>
      </trkpt>
      <trkpt lat="47.22564" lon="0.1034">
        <ele>32</ele>
        <time>2021-07-29T09:36:17Z</time>
      </trkpt>
      <trkpt lat="47.22558" lon="0.10326">
        <ele>33</ele>
        <time>2021-07-29T09:36:26Z</time>
      </trkpt>
      <trkpt lat="47.2255" lon="0.10312">
        <ele>33</ele>
        <time>2021-07-29T09:36:37Z</time>
      </trkpt>
      <trkpt lat="47.22543" lon="0.10297">
        <ele>33</ele>
        <time>2021-07-29T09:36:47Z</time>
      </trkpt>
      <trkpt lat="47.22537" lon="0.10283">
        <ele>33</ele>
        <time>2021-07-29T09:36:55Z</time>
      </trkpt>
      <trkpt lat="47.22531" lon="0.10269">
        <ele>32</ele>
        <time>2021-07-29T09:37:05Z</time>
      </trkpt>
      <trkpt lat="47.22524" lon="0.10255">
        <ele>32</ele>
        <time>2021-07-29T09:37:14Z</time>
      </trkpt>
      <trkpt lat="47.22517" lon="0.1024">
        <ele>32</ele>
        <time>2021-07-29T09:37:22Z</time>
      </trkpt>
      <trkpt lat="47.22509" lon="0.10224">
        <ele>32</ele>
        <time>2021-07-29T09:37:30Z</time>
      </trkpt>
      <trkpt lat="47.22502" lon="0.10211">
        <ele>33</ele>
        <time>2021-07-29T09:37:38Z</time>
      </trkpt>
      <trkpt lat="47.22495" lon="0.10199">
        <ele>33</ele>
        <time>2021-07-29T09:37:47Z</time>
      </trkpt>
      <trkpt lat="47.22489" lon="0.10187">
        <ele>33</ele>
        <time>2021-07-29T09:37:56Z</time>
      </trkpt>
      <trkpt lat="47.22483" lon="0.10172">
        <ele>33</ele>
        <time>2021-07-29T09:38:05Z</time>
      </trkpt>
      <trkpt lat="47.22478" lon="0.10159">
        <ele>33</ele>
        <time>2021-07-29T09:38:14Z</time>
      </trkpt>
      <trkpt lat="47.22474" lon="0.10142">
        <ele>33</ele>
        <time>2021-07-29T09:38:23Z</time>
      </trkpt>
      <trkpt lat="47.22469" lon="0.10126">
        <ele>33</ele>
        <time>2021-07-29T09:38:32Z</time>
      </trkpt>
      <trkpt lat="47.22467" lon="0.10109">
        <ele>33</ele>
        <time>2021-07-29T09:38:41Z</time>
      </trkpt>
      <trkpt lat="47.22462" lon="0.10093">
        <ele>33</ele>
        <time>2021-07-29T09:38:50Z</time>
      </trkpt>
      <trkpt lat="47.22458" lon="0.10077">
        <ele>33</ele>
        <time>2021-07-29T09:38:59Z</time>
      </trkpt>
      <trkpt lat="47.22453" lon="0.10061">
        <ele>33</ele>
        <time>2021-07-29T09:39:07Z</time>
      </trkpt>
      <trkpt lat="47.22449" lon="0.10044">
        <ele>33</ele>
        <time>2021-07-29T09:39:15Z</time>
      </trkpt>
      <trkpt lat="47.22444" lon="0.10026">
        <ele>33</ele>
        <time>2021-07-29T09:39:24Z</time>
      </trkpt>
      <trkpt lat="47.22439" lon="0.1001">
        <ele>33</ele>
        <time>2021-07-29T09:39:32Z</time>
      </trkpt>
      <trkpt lat="47.22435" lon="0.09995">
        <ele>33</ele>
        <time>2021-07-29T09:39:40Z</time>
      </trkpt>
      <trkpt lat="47.2243" lon="0.0998">
        <ele>33</ele>
        <time>2021-07-29T09:39:49Z</time>
      </trkpt>
      <trkpt lat="47.22426" lon="0.09964">
        <ele>33</ele>
        <time>2021-07-29T09:39:58Z</time>
      </trkpt>
      <trkpt lat="47.22422" lon="0.09949">
        <ele>33</ele>
        <time>2021-07-29T09:40:07Z</time>
      </trkpt>
      <trkpt lat="47.22416" lon="0.09933">
        <ele>33</ele>
        <time>2021-07-29T09:40:17Z</time>
      </trkpt>
      <trkpt lat="47.2241" lon="0.09918">
        <ele>33</ele>
        <time>2021-07-29T09:40:27Z</time>
      </trkpt>
      <trkpt lat="47.22404" lon="0.09903">
        <ele>33</ele>
        <time>2021-07-29T09:40:36Z</time>
      </trkpt>
      <trkpt lat="47.22399" lon="0.09886">
        <ele>33</ele>
        <time>2021-07-29T09:40:48Z</time>
      </trkpt>
      <trkpt lat="47.22396" lon="0.09873">
        <ele>33</ele>
        <time>2021-07-29T09:40:59Z</time>
      </trkpt>
      <trkpt lat="47.2239" lon="0.09859">
        <ele>33</ele>
        <time>2021-07-29T09:41:09Z</time>
      </trkpt>
      <trkpt lat="47.22383" lon="0.09845">
        <ele>32</ele>
        <time>2021-07-29T09:41:20Z</time>
      </trkpt>
      <trkpt lat="47.22373" lon="0.09828">
        <ele>32</ele>
        <time>2021-07-29T09:41:31Z</time>
      </trkpt>
      <trkpt lat="47.22363" lon="0.0981">
        <ele>32</ele>
        <time>2021-07-29T09:41:42Z</time>
      </trkpt>
      <trkpt lat="47.22354" lon="0.09798">
        <ele>32</ele>
        <time>2021-07-29T09:41:54Z</time>
      </trkpt>
      <trkpt lat="47.22346" lon="0.09783">
        <ele>32</ele>
        <time>2021-07-29T09:42:06Z</time>
      </trkpt>
      <trkpt lat="47.2234" lon="0.09765">
        <ele>32</ele>
        <time>2021-07-29T09:42:19Z</time>
      </trkpt>
      <trkpt lat="47.22334" lon="0.09744">
        <ele>32</ele>
        <time>2021-07-29T09:42:32Z</time>
      </trkpt>
      <trkpt lat="47.22328" lon="0.09722">
        <ele>32</ele>
        <time>2021-07-29T09:42:42Z</time>
      </trkpt>
      <trkpt lat="47.22321" lon="0.09707">
        <ele>33</ele>
        <time>2021-07-29T09:42:51Z</time>
      </trkpt>
      <trkpt lat="47.22316" lon="0.09689">
        <ele>33</ele>
        <time>2021-07-29T09:43:01Z</time>
      </trkpt>
      <trkpt lat="47.22312" lon="0.09671">
        <ele>33</ele>
        <time>2021-07-29T09:43:10Z</time>
      </trkpt>
      <trkpt lat="47.22307" lon="0.09651">
        <ele>33</ele>
        <time>2021-07-29T09:43:19Z</time>
      </trkpt>
      <trkpt lat="47.223" lon="0.09636">
        <ele>33</ele>
        <time>2021-07-29T09:43:29Z</time>
      </trkpt>
      <trkpt lat="47.22295" lon="0.09619">
        <ele>33</ele>
        <time>2021-07-29T09:43:38Z</time>
      </trkpt>
      <trkpt lat="47.22288" lon="0.09604">
        <ele>33</ele>
        <time>2021-07-29T09:43:47Z</time>
      </trkpt>
      <trkpt lat="47.22277" lon="0.09591">
        <ele>33</ele>
        <time>2021-07-29T09:44:00Z</time>
      </trkpt>
      <trkpt lat="47.22271" lon="0.09576">
        <ele>33</ele>
        <time>2021-07-29T09:44:12Z</time>
      </trkpt>
      <trkpt lat="47.22262" lon="0.09559">
        <ele>33</ele>
        <time>2021-07-29T09:44:22Z</time>
      </trkpt>
      <trkpt lat="47.22257" lon="0.09548">
        <ele>33</ele>
        <time>2021-07-29T09:44:38Z</time>
      </trkpt>
      <trkpt lat="47.2225" lon="0.09538">
        <ele>33</ele>
        <time>2021-07-29T09:45:03Z</time>
      </trkpt>
      <trkpt lat="47.22241" lon="0.09527">
        <ele>32</ele>
        <time>2021-07-29T09:45:15Z</time>
      </trkpt>
      <trkpt lat="47.22233" lon="0.09518">
        <ele>32</ele>
        <time>2021-07-29T09:45:25Z</time>
      </trkpt>
      <trkpt lat="47.22225" lon="0.09508">
        <ele>32</ele>
        <time>2021-07-29T09:45:35Z</time>
      </trkpt>
      <trkpt lat="47.22216" lon="0.09495">
        <ele>32</ele>
        <time>2021-07-29T09:45:44Z</time>
      </trkpt>
      <trkpt lat="47.22208" lon="0.09483">
        <ele>32</ele>
        <time>2021-07-29T09:45:53Z</time>
      </trkpt>
      <trkpt lat="47.22201" lon="0.09467">
        <ele>32</ele>
        <time>2021-07-29T09:46:01Z</time>
      </trkpt>
      <trkpt lat="47.22194" lon="0.09454">
        <ele>32</ele>
        <time>2021-07-29T09:46:10Z</time>
      </trkpt>
      <trkpt lat="47.22188" lon="0.09439">
        <ele>32</ele>
        <time>2021-07-29T09:46:19Z</time>
      </trkpt>
      <trkpt lat="47.22183" lon="0.09424">
        <ele>32</ele>
        <time>2021-07-29T09:46:29Z</time>
      </trkpt>
      <trkpt lat="47.22179" lon="0.0941">
        <ele>32</ele>
        <time>2021-07-29T09:46:46Z</time>
      </trkpt>
      <trkpt lat="47.22174" lon="0.09393">
        <ele>32</ele>
        <time>2021-07-29T09:46:57Z</time>
      </trkpt>
      <trkpt lat="47.22168" lon="0.09378">
        <ele>33</ele>
        <time>2021-07-29T09:47:06Z</time>
      </trkpt>
      <trkpt lat="47.22164" lon="0.0936">
        <ele>33</ele>
        <time>2021-07-29T09:47:18Z</time>
      </trkpt>
      <trkpt lat="47.22163" lon="0.09352">
        <ele>33</ele>
        <time>2021-07-29T09:48:09Z</time>
      </trkpt>
      <trkpt lat="47.22162" lon="0.09338">
        <ele>33</ele>
        <time>2021-07-29T09:48:37Z</time>
      </trkpt>
      <trkpt lat="47.22162" lon="0.09316">
        <ele>33</ele>
        <time>2021-07-29T09:48:51Z</time>
      </trkpt>
      <trkpt lat="47.22161" lon="0.09299">
        <ele>33</ele>
        <time>2021-07-29T09:49:10Z</time>
      </trkpt>
      <trkpt lat="47.22162" lon="0.09299">
        <ele>33</ele>
        <time>2021-07-29T09:49:58Z</time>
      </trkpt>
      <trkpt lat="47.22162" lon="0.09282">
        <ele>33</ele>
        <time>2021-07-29T09:50:53Z</time>
      </trkpt>
      <trkpt lat="47.22164" lon="0.09268">
        <ele>33</ele>
        <time>2021-07-29T09:51:04Z</time>
      </trkpt>
      <trkpt lat="47.22166" lon="0.09252">
        <ele>33</ele>
        <time>2021-07-29T09:51:14Z</time>
      </trkpt>
      <trkpt lat="47.22173" lon="0.09236">
        <ele>33</ele>
        <time>2021-07-29T09:51:24Z</time>
      </trkpt>
      <trkpt lat="47.22181" lon="0.09221">
        <ele>33</ele>
        <time>2021-07-29T09:51:36Z</time>
      </trkpt>
      <trkpt lat="47.22194" lon="0.09217">
        <ele>33</ele>
        <time>2021-07-29T09:51:46Z</time>
      </trkpt>
      <trkpt lat="47.22206" lon="0.09217">
        <ele>32</ele>
        <time>2021-07-29T09:51:56Z</time>
      </trkpt>
      <trkpt lat="47.2222" lon="0.0922">
        <ele>32</ele>
        <time>2021-07-29T09:52:06Z</time>
      </trkpt>
      <trkpt lat="47.22233" lon="0.09225">
        <ele>32</ele>
        <time>2021-07-29T09:52:18Z</time>
      </trkpt>
      <trkpt lat="47.2224" lon="0.09223">
        <ele>32</ele>
        <time>2021-07-29T09:52:47Z</time>
      </trkpt>
      <trkpt lat="47.22229" lon="0.0922">
        <ele>33</ele>
        <time>2021-07-29T09:53:03Z</time>
      </trkpt>
      <trkpt lat="47.22218" lon="0.0922">
        <ele>33</ele>
        <time>2021-07-29T09:53:14Z</time>
      </trkpt>
      <trkpt lat="47.2221" lon="0.09218">
        <ele>33</ele>
        <time>2021-07-29T09:53:45Z</time>
      </trkpt>
    </trkseg>
  </trk>
</gpx>